Flag for U.S.A. Weather past 2 weeks in Fort Worth, Texas, U.S.A.

Now
44 °F

Clear.


Feels Like: 43 °F
Forecast: 40 / 73 °F
Wind: 3 mph from Northwest

Location: Meacham International Airport

Current Time: Jan 26, 2015 at 3:28:30 AM

Latest Report: Jan 26, 2015 at 2:53 AM


Visibility: 10 mi

Pressure: 30.21 "Hg

Humidity: 51%

Dew point: 27 °F

Location of Fort WorthLocation

Historic Weather in Fort Worth — Graph

°F

Fort Worth temperature yesterday

Maximum temperature yesterday: 64 °F (at 12:53 PM)
Minimum temperature yesterday: 44 °F (at 12:53 AM)
Average temperature yesterday: 53 °F

Past Weeks' High & Low Weather Summary

 TemperatureHumidityPressure
High71 °F (Jan 18, 2:53 PM)97% (Jan 11, 3:00 AM)30.52 "Hg (Jan 11, 3:00 AM)
Low32 °F (Jan 13, 7:53 AM)16% (Jan 18, 4:53 PM)29.90 "Hg (Jan 20, 4:53 AM)
Average47 °F63%30.19 "Hg
* Reported Jan 11 2:04 AM — Jan 26 1:53 AM, Fort Worth, Weather by CustomWeather, © 2014

Note: Actual official high and low records may vary slightly from our data, if they occured in-between our weather recording intervals... More about our weather records

Advertising

Fort Worth weather history for previous 24 hours

 ConditionsComfort  
Time TempWeatherWind HumidityBarometerVisibility
1:53 AM
Jan 26
46 °FClear.3 mph46%30.19 "Hg10 mi
12:53 AM47 °FClear.5 mph44%30.20 "Hg10 mi
11:53 PM
Jan 25
46 °FClear.No wind46%30.20 "Hg10 mi
10:53 PM48 °FClear.6 mph43%30.19 "Hg10 mi
9:53 PM48 °FClear.3 mph43%30.16 "Hg10 mi
8:53 PM49 °FClear.8 mph43%30.14 "Hg10 mi
7:53 PM50 °FClear.7 mph43%30.13 "Hg10 mi
6:53 PM54 °FClear.9 mph35%30.10 "Hg10 mi
5:53 PM58 °FSunny.10 mph30%30.08 "Hg10 mi
4:53 PM62 °FSunny.18 mph23%30.07 "Hg10 mi
3:53 PM63 °FSunny.18 mph25%30.06 "Hg10 mi
2:53 PM63 °FSunny.24 mph27%30.05 "Hg10 mi
1:53 PM63 °FSunny.22 mph25%30.03 "Hg10 mi
12:53 PM64 °FSunny.23 mph23%30.02 "Hg10 mi
11:53 AM63 °FSunny.24 mph28%30.04 "Hg10 mi
10:53 AM59 °FSunny.24 mph39%30.05 "Hg10 mi
9:53 AM56 °FSunny.18 mph47%30.04 "Hg10 mi
8:53 AM50 °FSunny.17 mph61%30.03 "Hg10 mi
7:53 AM46 °FSunny.13 mph66%30.01 "Hg10 mi
6:53 AM46 °FClear.13 mph66%29.97 "Hg10 mi
5:53 AM47 °FClear.10 mph64%29.95 "Hg10 mi
4:53 AM45 °FClear.8 mph68%29.94 "Hg10 mi
3:53 AM47 °FClear.8 mph66%29.94 "Hg10 mi
Weather by CustomWeather, © 2014

See weather overviewHow to use our weather pages